TimeCDT,TemperatureF,Dew PointF,Humidity,Sea Level PressureIn,VisibilityMPH,Wind Direction,Wind SpeedMPH,Gust SpeedMPH,PrecipitationIn,Events,Conditions,WindDirDegrees,DateUTC
12:54 AM,75.9,48.9,38,29.84,10.0,WSW,16.1,23.0,N/A,,Clear,240,2013-05-15 05:54:00
1:54 AM,75.9,48.9,38,29.85,10.0,WSW,16.1,24.2,N/A,,Clear,240,2013-05-15 06:54:00
2:54 AM,75.0,48.9,40,29.85,10.0,WSW,11.5,23.0,N/A,,Clear,240,2013-05-15 07:54:00
3:54 AM,73.0,50.0,44,29.86,10.0,WSW,12.7,-,N/A,,Clear,240,2013-05-15 08:54:00
4:54 AM,69.1,52.0,54,29.89,10.0,WSW,6.9,-,N/A,,Clear,240,2013-05-15 09:54:00
5:54 AM,69.1,52.0,54,29.90,10.0,SW,10.4,-,N/A,,Clear,230,2013-05-15 10:54:00
6:54 AM,71.1,52.0,51,29.91,10.0,SW,13.8,-,N/A,,Clear,220,2013-05-15 11:54:00
7:54 AM,73.0,53.1,49,29.91,10.0,WSW,10.4,-,N/A,,Clear,240,2013-05-15 12:54:00
8:54 AM,75.0,54.0,48,29.90,10.0,WSW,18.4,25.3,N/A,,Scattered Clouds,240,2013-05-15 13:54:00
9:54 AM,78.1,57.0,48,29.90,10.0,WSW,15.0,21.9,N/A,,Scattered Clouds,250,2013-05-15 14:54:00
10:54 AM,82.0,60.1,47,29.90,10.0,SW,11.5,19.6,N/A,,Partly Cloudy,220,2013-05-15 15:54:00
11:54 AM,86.0,61.0,43,29.88,10.0,West,9.2,-,N/A,,Partly Cloudy,260,2013-05-15 16:54:00
12:54 PM,87.1,60.1,40,29.86,10.0,SW,11.5,-,N/A,,Clear,230,2013-05-15 17:54:00
1:54 PM,88.0,62.1,42,29.84,10.0,SW,9.2,17.3,N/A,,Partly Cloudy,220,2013-05-15 18:54:00
2:54 PM,90.0,62.1,39,29.83,10.0,West,11.5,16.1,N/A,,Scattered Clouds,260,2013-05-15 19:54:00
3:54 PM,90.0,59.0,35,29.80,10.0,WSW,12.7,18.4,N/A,,Scattered Clouds,250,2013-05-15 20:54:00
4:54 PM,88.0,57.0,35,29.80,10.0,SSW,10.4,-,N/A,,Mostly Cloudy,200,2013-05-15 21:54:00
5:54 PM,86.0,62.1,44,29.79,10.0,SW,6.9,-,N/A,,Mostly Cloudy,220,2013-05-15 22:54:00
6:54 PM,82.9,62.1,49,29.79,10.0,SW,5.8,-,N/A,,Overcast,220,2013-05-15 23:54:00
7:54 PM,82.0,62.1,51,29.80,10.0,SSW,8.1,-,N/A,,Mostly Cloudy,210,2013-05-16 00:54:00
8:54 PM,82.0,61.0,49,29.82,10.0,SSW,10.4,-,N/A,,Overcast,210,2013-05-16 01:54:00
9:54 PM,79.0,63.0,58,29.83,10.0,SW,6.9,-,N/A,,Mostly Cloudy,220,2013-05-16 02:54:00
10:54 PM,77.0,63.0,62,29.82,10.0,SSW,6.9,-,N/A,,Clear,200,2013-05-16 03:54:00
11:54 PM,73.9,64.0,71,29.85,10.0,WSW,4.6,-,N/A,,Clear,240,2013-05-16 04:54:00